Flag for Norway Weather past 2 weeks in Askim, Norway

Now
73 °F

Passing clouds.


Feels Like: 76 °F
Forecast: 58 / 71 °F
Wind: 20 mph from Southwest

Location: Rygge

Current Time: Jul 30, 2014 at 3:47:50 PM

Latest Report: Jul 30, 2014 at 2:50 PM


Visibility: N/A

Pressure: 29.65 "Hg

Humidity: 61%

Dew point: 59 °F

Location of AskimLocation

Historic Weather in Askim — Graph

°F

Askim temperature yesterday

Maximum temperature yesterday: 75 °F (at 10:50 AM)
Minimum temperature yesterday: 63 °F (at 3:50 AM)
Average temperature yesterday: 70 °F

Past Weeks' High & Low Weather Summary

 TemperatureHumidityPressure
High91 °F (Jul 23, 5:20 PM)100% (Jul 17, 2:20 AM)30.30 "Hg (Jul 17, 2:20 AM)
Low54 °F (Jul 19, 4:50 AM)26% (Jul 23, 5:50 PM)29.65 "Hg (Jul 30, 4:50 AM)
Average71 °F66%30.05 "Hg
* Reported Jul 15 2:20 PM — Jul 30 2:50 PM, Askim, Weather by CustomWeather, © 2014

Note: Actual official high and low records may vary slightly from our data, if they occured in-between our weather recording intervals... More about our weather records

Advertising

Askim weather history for previous 24 hours

 ConditionsComfort  
Time TempWeatherWind HumidityBarometerVisibility
2:50 PM
Jul 30
73 °FPassing clouds.20 mph61%29.65 "HgN/A
2:20 PM73 °FPassing clouds.21 mph61%29.65 "HgN/A
1:50 PM73 °FPassing clouds.20 mph61%29.65 "HgN/A
1:20 PM73 °FPassing clouds.18 mph61%29.65 "HgN/A
12:50 PM73 °FPassing clouds.17 mph61%29.65 "HgN/A
12:20 PM73 °FPassing clouds.18 mph57%29.65 "HgN/A
11:50 AM73 °FPassing clouds.16 mph53%29.65 "HgN/A
11:20 AM72 °FPassing clouds.15 mph65%29.65 "HgN/A
10:50 AM72 °FScattered clouds.13 mph73%29.65 "HgN/A
10:20 AM70 °FBroken clouds.10 mph73%29.65 "HgN/A
9:50 AM72 °FPartly sunny.10 mph69%29.65 "HgN/A
9:20 AM70 °FBroken clouds.9 mph78%29.65 "HgN/A
8:50 AM70 °FPartly sunny.10 mph78%29.65 "HgN/A
8:20 AM70 °FScattered clouds.10 mph73%29.65 "HgN/A
7:50 AM68 °FPassing clouds.10 mph73%29.65 "HgN/A
7:20 AM66 °FPassing clouds.10 mph83%29.65 "HgN/A
6:50 AM64 °FPassing clouds.10 mph88%29.65 "HgN/A
6:20 AM64 °FPassing clouds.9 mph88%29.65 "HgN/A
5:50 AM63 °FMild.9 mph94%29.65 "HgN/A
5:20 AM61 °FCool.9 mph94%29.65 "HgN/A
4:50 AM61 °FCool.8 mph94%29.65 "HgN/A
4:20 AM63 °FMild.7 mph88%29.68 "HgN/A
3:50 AM63 °FPassing clouds.9 mph88%29.68 "HgN/A
3:20 AM63 °FMostly cloudy.8 mph88%29.68 "HgN/A
2:50 AM61 °FPassing clouds.7 mph94%29.68 "HgN/A
2:20 AM61 °FCool.6 mph88%29.68 "HgN/A
1:50 AM61 °FPassing clouds.8 mph88%29.71 "HgN/A
1:20 AM64 °FPassing clouds.7 mph83%29.71 "HgN/A
12:50 AM64 °FPassing clouds.8 mph83%29.71 "HgN/A
12:20 AM64 °FPassing clouds.8 mph83%29.74 "HgN/A
11:50 PM
Jul 29
64 °FClear.8 mph83%29.74 "Hg10 mi
11:20 PM64 °FPassing clouds.8 mph83%29.74 "HgN/A
10:50 PM66 °FPassing clouds.8 mph78%29.74 "HgN/A
10:20 PM66 °FPassing clouds.7 mph78%29.74 "HgN/A
9:50 PM66 °FSunny.7 mph78%29.74 "Hg10 mi
9:20 PM68 °FPassing clouds.10 mph73%29.74 "HgN/A
8:50 PM70 °FPassing clouds.10 mph73%29.74 "HgN/A
8:20 PM72 °FPassing clouds.13 mph69%29.77 "HgN/A
7:50 PM72 °FPassing clouds.13 mph69%29.77 "HgN/A
7:20 PM73 °FSunny.13 mph65%29.77 "Hg10 mi
6:50 PM75 °FPassing clouds.14 mph57%29.77 "HgN/A
6:20 PM75 °FSunny.14 mph61%29.77 "Hg10 mi
5:50 PM73 °FPassing clouds.14 mph69%29.77 "HgN/A
5:20 PM75 °FPassing clouds.14 mph65%29.80 "HgN/A
4:50 PM75 °FSunny.15 mph65%29.80 "Hg10 mi
4:20 PM75 °FSunny.15 mph65%29.80 "Hg10 mi
3:50 PM75 °FSunny.15 mph65%29.80 "Hg10 mi
3:20 PM75 °FSunny.15 mph57%29.83 "Hg10 mi
Weather by CustomWeather, © 2014

See weather overviewHow to use our weather pages